Race Results for
NORBA NCS #3 - Snowshoe
Snowshoe, WV
(Event Information)
This is a non-competitive event
Cross Country on 06/23/2002

Note: Ranking points are NOT upgrade points. An explanation of ranking points can be found here.


Men - Junior - JR - JuniorX

 Place NameCity, StateTime USAC #BibTeam
1John Devine   Dixon, IL1:54:45. 166980  770 TREK/VW
2Aaron Bradford   Santa Cruz, CA1:58:03. 156335  719 RAD RACING
3Stefano Barberi   Newbury Park, CA1:58:11. 136696  670 
4David Timmons   Flagstaff, AZ2:00:03. 153514  729 RPM/YETI
5Brent Bookwalter   Asheville, NC2:00:28. 171977  901 BALANCE BA
6Todd Henriksen   Xenia, OH2:01:48. 159980  753 RPM/YETI
7Adam Swartzbaugh   Rockport, ME2:02:04. 149935  726 
8Andrew Freye   New Gloucester, ME2:02:16. 164856  887 TEAM GRIMA
9Tane Hunter   Las Cruces, NM2:03:32. 130676  431 
10Spencer Paxson   Bellingham, WA2:04:11. 152029  603 DISCO VELO
11RYAN IDDINGS   2:04:59.  610 RAD RACING
12Adam Snyder   Westminster, MA2:05:16. 122912  714 TEAM BALAN
13Eric Marrison   Colorado Spgs, CO2:05:23. 103174  690 FRONT RANG
14Michael Lenas   St Petersburg, FL2:05:42. 154630  787 SOUTHEAST
15ROSS SCATCHARD   2:06:13.  861 BLISS RACI
16Brian Weldon   Avon, CT2:06:36. 159653  616 INDEPENDEN
17Richie Tillotson   Atlanta, GA2:06:59. 146485  895 COLORADO A
18Michael Raney   Santa Fe, NM2:08:36. 175669  430 PROJECT OS
19BRYAN BECKMANN   West Camp, NY2:09:55. 152491  918 SOBE
20Ethan Johnson   Durango, CO2:11:23. 152494  656 MOOTS CYCL
21BRYAN FAWLEY   2:11:23.  801 
22ERIC JELLUM   2:13:04.  647 SPECIALIZE
23Chris Kuhl   Dillsburg, PA2:14:06. 175354  492 GETTYSBURG
24Joseph Thompson   Durango, CO2:14:19. 185428  734 TEAM DEVO
25Steve Ladd   Fort Collins, CO2:14:39. 166316  855 ALGER SCHW
26Jordan Carr   Gunnison, CO2:15:34. 170822  721 KEGELS/TRE
27COLBY JESSET   2:15:52.  651 
28EDWARD BURRESS III   Arden, NC2:15:58. 146920  856 BICYCLE SH
29John Murphy   Horse Shoe, NC2:17:03. 153638  424 COLORADO A
30THOMAS KRPICAK   2:17:13.  561 PRIMO BIKE
31Cohen Caswell   Center Harbor, NH2:18:31. 151703  797 DEVO
32MAT MORAVEC   2:22:13.  414 SPEEDGOAT.
33Christopher Phillips   Morgantown, WV2:23:07. 178828  494 SRAM
34Brandon Draugelis   Shippensburg, PA2:23:53. 179397  499 
35Nicholas Payne   San Antonio, TX2:25:30. 118719  437 SOBE CANNO
36John Flanagan   Durango, CO2:26:54. 161358  632 RPM/YETI
37MARK SCHOW   2:26:54.  580 
38Michael McClure   Ketchum, ID2:26:58. 120469  683 BALANCE BA
39NICK PEDATELLA   2:32:20.  601 
40James Pair   Marietta, GA2:34:07. 143635  880 INDEPENDEN
41Taylor Pierce   Pfafftown, NC2:43:45. 180663  881 PACELINE B
42Andrew Boyd   Hoover, AL2:48:26. 173776  782 MADISON CY
43CHARLES PATTERSON JR   Pittsburgh, PA2:48:38. 190870  680 PATTERSON
44ALEX MOSER   2:59:06.  649 DEAN BICYC
45PETER VOELKER   2:59:26.  563 BIKE DOCTO
DNFDaniel Rotroff   Lewisville, NCDNF 180713  882 PACELINE B
DNFAnthony Fehr   Whittemore, IADNF 170615  540 GOPHER COL
DNFLogan Onken   Missoula, MTDNF 162734  421 RPM/YETI
DNFRobbie Stone   Salt Lake City, UTDNF 154910  711 HGR/GIANT
DNFAdam Childers   Little Rock, ARDNF 159413  545 ORBEA
DNFNicholas McGowan   Greenville, NCDNF 153803  852 BICYCLE WO
DNFKeaton Tucker   Seattle, WADNF 152053  682 BALANCE BA
DNFDavid Milne   DNF 149711  527 DEAN BIKES
DNFEvan Anderson   Grass Valley, CADNF 140620  710 TEAM NSO
DNFSamuel Benson   Sharon, VTDNF 122425  636 TEAM BALAN
DNFBEN RICHARDSON   DNF  752 
DNFPERRY PAOLINI   DNF  440 BALANCE BA
DNFBRAD COPELAND   DNF  594 PIEDMONT F

Men - SM - Senior

 Place NameCity, StateTime USAC #BibTeam
1Charles Pendry   Raleigh, NC1:54:39. 106096  211 HIGHLANDS
2Brandon Ott   Collegeville, PA1:55:54. 151613  221 TAILWIND B
3JOHN FOLEY   1:55:59.  219 BICYCLE AL
4Grant Berry   Durango, CO1:56:38. 148636  224 IONIC/CLIF
5Robert Scott   Wappingers Falls , NY1:57:17. 32000  238 SOBE/CANNO
6Matthew Battin   Columbus, IN1:58:48. 2890  243 BICYCLE ST
7Jeffrey Shirey   Athens, GA1:59:17. 113111  241 SUNSHINE/P
8Troy Michaud   York, ME1:59:47. 92465  212 TREK NEW E
9Robert Giannini   Monroe, CT2:00:25. 105754  237 NORTH EAST
10Brian Behrmann   Shrewsbury, NJ2:00:36. 93952  236 SOBE CANON
11EDWARD CECCOLINI III   Pompton Lakes, NJ2:00:43. 54209  203 WESTWOOD V
12Daniel Swanson   St Louis Park, MN2:00:57. 117942  230 NATURE VAL
13Anthony Slowinski   Louisville, KY2:01:22. 121030  242 TREK/JEFFE
14Craig Sandstrom   Pocatello, ID2:01:32. 141472  205 IDAHO STAT
15Ben Klimas   Parkersburg, WV2:01:42. 144474  231 SPECIALIZE
16Brian Pashley   Hamden, NY2:02:03. 100014  206 K2
17Mitch Westall   Littleton, CO2:02:12. 37798  215 DEAN/DYNAT
18Everett Baker   2:02:42. 90759  220 HIGHLANDS
19DONALD SNOOP JR   Beverly, MA2:02:55. 82776  209 SOBE CANNO
20Joshua Powers   Phoenix, AZ2:03:11. 91975  222 ADVENTURE
21David Peterson   Lexington, KY2:03:55. 122742  229 INDEPENDEN
22Ryan Vaslet   Boulder, CO2:04:00. 104369  216 BRECKEN RI
23Hal Clark   Lafayette, CO2:04:01. 175767  227 BRECK BREW
24Greg Dunn   Nashville, TN2:04:24. 10207  244 SUN & SKI
25JEREMY GETGER   Owings, MD2:04:37. 144253  239 BIKE SPORT
26ANDERSON ALVES   2:06:05.  204 OUTLAW BIC
27Daniel Corum   Winston Salem, NC2:06:11. 92797  235 SOBE CANNO
28Sloane Anderson   Bend, OR2:06:20. 159947  208 GREGS CANN
29Joseph Marshall   Denver, CO2:06:37. 101161  214 RITCHEY
30M Shane Bresnyan   Santa Rosa, CA2:07:31. 144318  629 SOULCRAFT
31KEVIN CLEGG   2:09:24.  218 BRODWAY BI
32Robert Cagle   Marietta, GA2:10:00. 137285  202 ATLANTA CY
33Josh Snead   Larkspur, CA2:15:52. 135947  225 
34CRAIG WOHLSHLAGER   2:16:41.  232 
DNFJAY DUFFY   DNF  234 SPEEDGOAT.
DNFDavid Robinson   Bend, ORDNF 143711  223 
DNFJed Schober   Lititz, PADNF 137636  207 BERGWERKUS
DNFEarl Bradley   Indialantic, FLDNF 133173  226 SOUTHEAST
DNFJesse Rients   Shakopee, MNDNF 147524  228 PENN CYCLE
DNFDana Weber   Aliso Viejo, CADNF 126922  201 TEAM DIABE
DNFJorel Hendershot   Mears, MIDNF 116140  213 SOBE/HEADS
DNFBrian Schworm   Morehead, KYDNF 104934  210 PEDAL POWE
DNFJason Jablonski   Wenatchee, WADNF 98835  217 BOLLA/BIAN
DNFDavid Duvall   Baltimore, MDDNF 10300  240 TREK/VW E

Men - EX - Senior - 19-24

 Place NameCity, StateTime USAC #BibTeam
1Thomas Turner   Canton, GA1:56:46. 103410  730 SOBE/CANNO
2Justin Scott   East Lyme, CT1:59:25. 140116  857 MOMDAD
3Alex Hagman   Fort Collins, CO2:01:45. 173228  657 
4ALEJANDRO SIGUERE   2:02:04.  668 BIKE CENTE
5Nicholas Ranno   Boulder, CO2:03:12. 128706  697 COLORADO S
6TIMOTHY PLATT   Seattle, WA2:04:04. 108057  570 DIRTY HARR
7Nathan (Nate) Ringquist   Westminster, MA2:04:20. 140698  893 HARPOON/RA
8Daniel Cooley   Pasco, WA2:05:26. 115500  662 BOLLA/BIAN
9Lucas Livermon   Carrboro, NC2:07:23. 161552  622 TREK-GRASS
10Daniel Bruns   Saint Louis, MO2:07:37. 186256  744 DOG FISH
11Corey Piscopo   Steamboat Springs, CO2:07:44. 146402  621 
12SPENCER POWLISON   2:09:02.  641 INDEPENDEN
13Nathan Rice   Durham, NC2:09:04. 29688  536 CATAMOUNT
14Troy Adams   Sylva, NC2:10:25. 157975  859 COLORADO A
15Filippo Barbieri   Delray Beach, FL2:11:27. 136914  575 
16Jarett Sweeney   Nesquehoning, PA2:12:02. 169675  687 JAMA BIKES
17Caleb McFadden   Perrysville, OH2:12:24. 165987  612 VELOX
18GREG LEWIS   2:16:02.  876 GOJUS
19Christian Favata   Rosendale , NY2:16:55. 135665  686 TABLE ROCK
20Justin Becker   Loveland, OH2:18:34. 107839  885 BIOWHEELS
21Tyler Wells   Buckhannon, WV2:24:06. 181502  920 GU SPORTS/
22RYAN MACDONALD   2:27:27.  924 
23FRASER KIRKPATRICK   2:27:29.  564 TEAM BURN
24Daniel Matheny   Colorado Springs, CO2:28:00. 145481  910 LINDSEY WI
25Justin Maka   Albuquerque, NM2:28:17. 164982  771 ROCK N ROA
26Ryan Ives   Trabuco Canyon2:29:50. 172273  890 SOBE/CANNA
27SAM HASKETT   2:30:58.  866 
28Daniel Adams   Nevada City, CA2:34:37. 129025  708 TEAM N.S.O
DNFWilliam Hall   Orlando, FLDNF 115828  824 CES/SCHELL
DNFJEFFREY FOX   DNF  586 
DNFDAVID FAHNESTOCK   DNF  700 LATERAL ST
DNFSteven Carwile   Owings Mills, MDDNF 149268  728 LINDSEY WI
DNFMatthew Funk   Vermilion, OHDNF 172063  617 
DNFJoseph Saperstein   Boulder, CODNF 171671  624 COYOTE HIL
DNFChris Fehr   Minneapolis, MNDNF 170602  541 GOPHER COL
DNFAndrew Wulfkuhle   Lancaster, PADNF 153981  538 WISSAHICKO
DNFNick Martin   Boulder, CODNF 140177  634 TREK/VW RO

Men - EX - Senior - 25-29

 Place NameCity, StateTime USAC #BibTeam
1Michael Telega   Los Angeles, CA1:59:06. 162569  658 KELLY BIKE
2William Jason Laxton   Boone, NC2:00:47. 164077  884 BOONE BIKE
3Michael Kuhn   Bethlehem, PA2:02:35. 40845  535 PA PENSION
4MICHAEL KEETER   Hanover, PA2:03:38. 111783  900 GETTYSBURG
5Christopher Hopwood   Fairfield, CT2:04:06. 164804  618 GARY FISHE
6Jay Cox   Winston Salem, NC2:04:58. 171150  591 PACELINE B
7Terry Walls   Baltimore, MD2:05:33. 178430  747 BIKE DOCTO
8Daniel Bonora   York Haven, PA2:05:45. 150946  551 
9PHILLIP WAYNE   2:05:46.  891 
10Eli Mercer   Fox Lake, IL2:05:54. 148150  783 GARYFISHER
11Jacob Prater   Maryville, TN2:08:04. 28614  874 GP ENTERPR
12Todd Helmick   Newport News, VA2:08:07. 181000  600 TREK GRASS
13John Cameron   Mechanicsburg, PA2:08:20. 42864  595 PA PENSION
15Zachary Blaser   Allentown, PA2:10:28. 85186  596 PA PENSION
16RALPH (REUBEN) KLINE   2:12:03.  899 GETTYSBURG
17DAVID FLEMING   2:12:10.  922 
18Bernie Grysen   Grandville, MI2:14:43. 190244  888 ALGER RACI
19JONATHAN HANSEN   2:16:59.  892 SNOW VALLE
20Joseph Stone   Dunbar, WV2:17:35. 188650  914 RIDGE RIDE
21Foye Troute   Hixson, TN2:18:19. 35970  639 BIKE ROUTE
22MATTHEW LENAHAN   2:21:00.  909 TEAM SNOW
23Daniel Doub   Holly Springs, NC2:22:26. 180997  587 CYCLING SP
24Mike Rucker   Cincinnati, OH2:22:54. 94464  705 
25Oliver Quinn   Athens, GA2:23:12. 134289  810 SUNSHINE/M
26Mario Medina   Sussex, WI2:26:24. 181488  791 MTB CDVCY
27Jonathan Kindig   Louisville, KY2:27:24. 106200  919 BIKEMAN
28YOUNG CHOI   2:28:25.  789 LSV
29Robert Combs   Cincinnati, OH2:28:51. 151857  694 BIOWHEELS
30JOHN CALEIANO   2:30:50.  903 CITY BIKES
31John Benoit   Gastonia, NC2:31:59. 180642  560 SOUTHPARKS
32GREG WALTERS   2:32:50.  894 DIRTY HARR
33Joseph Carter   Jesup, GA2:34:39. 171189  897 COLORADO A
34ANDREW WEIR   2:37:31.  691 BICYCLE WO
35CHRISTOPHER FILIPIAK   2:43:05.  423 
36ANDREW MCALLISTER   2:45:14.  704 BIKEZONE I
DNFPhilip Ball   Simpsonville, SCDNF 163271  602 SOBE/CANNO
DNFIAN MOORE   DNF  879 SCS/RLX
DNFJEREMIAH BRADSHAW   DNF  557 DOGFISH AP

Men - EX - Master - 30-34

 Place NameCity, StateTime USAC #BibTeam
1Roger Aspholm   Haworth, NJ2:02:45. 136195  530 WESTWOOOD
2Robert Cotton   Ann Arbor, MI2:02:45. 190324  762 STRUCTURAL
3Jerry Jayne   Thousand Oaks, CA2:04:35. 132960  442 AMGEN
4Brett Malin   Vail, CO2:04:42. 161595  860 
5Ransom Weaver   Havertown, PA2:07:00. 142290  486 
6MATHEW LEE   2:07:24.  865 CLEAN MACH
7Thomas Archer   Howell, MI2:09:01. 153642  429 BELLS BEER
8Brandon Eifrid   Lafayette, CO2:09:19. 106252  483 
9THOMAS JENKINS   2:09:46.  849 HUGH JASS
10Jerry (Jay) Charles   Blythewood, SC2:11:48. 110326  607 CYCLE CENT
11Joe Fritsch   Olney, MD2:12:52. 12446  410 COLLEGE PA
12Kurt Schmid   Marblehead, MA2:13:00. 178460  529 RUDY PROJE
13Matt Wolf   Salt Lake Cty, UT2:13:34. 93419  718 BIOGEN
14JASON LAMMIS   Bellevue, WA2:13:52. 174289  877 BELLS BEER
15Mark Olson   Hickory Corners, MI2:14:05. 140153  625 
16Garth Prosser   Dublin, OH2:14:43. 28761  878 SOBE
17Steve Insley   Belding, MI2:15:48. 154492  482 KENTWOOD S
18BRENT LOWES   2:16:00.  788 BERGWERK C
19Christopher Cyr   So. Portland, ME2:16:35. 147253  533 PORTLAND V
20Chris Baker   Morgantown, WV2:17:44. 139227  546 WMW ADVENT
21Todd Branham   Cedar Mountain, NC2:17:59. 4640  792 
22Nicholas Johnson   Philadelphia, PA2:18:24. 43822  889 GUYS BICYC
23John Parke   Westwood, NJ2:18:45. 86645  412 WESTWOOD V
24Shane Schreihart   Woodstock, GA2:22:09. 185868  872 HAPPY TRAI
25Yuri Hauswald   Petaluma, CA2:23:51. 102310  615 SOULCRAFT
26Gavin Gonzalez   Englewood, CO2:24:30. 169867  907 BIO WHEELS
27J J McDowell   Trinity, NC2:24:44. 147076  420 TEAM SPINZ
28SVEN EISENHAUER   2:24:59.  886 BONESHAVER
29James MacLean   Fairfax Station, VA2:25:26. 168223  485 OC RACING
30Michael Zocchi   Arlington, MA2:27:10. 39534  489 LANDRYS/LI
31Wake Fulp   Roanoke, VA2:27:36. 85363  593 PIEDMONT F
32Mike Berube   Haymarket, VA2:32:08. 170232  915 BIKE DOCTO
33Michael Holt   Arlington, VA2:32:09. 119107  581 USMC MTB T
34Christopher Nelson   Greenfield, OH2:34:42. 177130  665 MOUTIAN MA
35PAUL KOVALCIK   2:37:06.  854 VELO X
36Wayne Stone   Asheville, NC2:43:37. 176351  842 CLEAN MACH
DNFKelly Cline   Media, PADNF 145697  828 CLUB WISSA
DNFRalph Ciampaglia   Audubon, PADNF 6914  577 BEANS BIKE
DNFMICHAEL RENDER   DNF  912 ANNAPOLIS

Men - EX - Master - 35-39

 Place NameCity, StateTime USAC #BibTeam
1Scott Fifield   Reno, NV2:04:04. 164563  432 RUDY PROJE
2Troy Kimball   Austin, TX2:04:44. 118576  498 WESTWOOD V
3Michael Patrick   Milford, CT2:07:06. 77698  818 GARY FISHE
4Michael Buchness   Reston, VA2:09:52. 5322  568 BIKE DOCTO
5Anthony Anderson   Reno, NV2:12:31. 81585  713 K2 BIKES
6John Finetto   Haworth, NJ2:16:51. 65188  534 
7Chris De Frates   Crested Butte, CO2:17:32. 156114  439 MAMMTH SPT
8Ronald Famiglietti   Steamboat Springs, CO2:18:00. 172155  484 MOOTS CYCL
9James Rocha   Virginia Beach, VA2:19:06. 171021  674 PACK SAND
10Mike Capraro   Linden, VA2:19:37. 6058  609 ABSURD CIR
11James Hendry   Jacksonville, FL2:20:17. 138975  630 BIKE ROUTE
12Stephen Thaxton   Sissonville, WV2:21:39. 35278  883 WORLDWIDE
13Richard Noonan   Rochester Hills, MI2:21:49. 118365  737 BELLS BEER
15Doug Foxworth   Rio Medina, TX2:25:41. 12179  640 TEAM DIABE
16Gregory Maness   Mason, OH2:25:51. 176623  848 BIO WHEELS
17Kurt Dodds   Wynnewood, PA2:26:10. 9666  798 WISSAHICKO
18Dowain Ford   Aurora, WV2:30:50. 214473  643 
19Sean Coleman   Land O Lakes, FL2:32:40. 121299  777 US COAST G
20Richard Sellino   Franklin, NC2:40:14. 32152  794 OUTLAW BIC
21Lonnie Kinkade   North Little Rock, AR2:42:33. 19209  764 STAR TEXAS
22Scott Evans   Bay Village, OH2:45:55. 79394  851 VELO-X RAC
23JAMES SLAUSON   2:55:17.  441 HILL COUNT
DNFKevin Wetzel   Purcellville, VADNF 37853  800 SOBE/CANNO
DNFBilly Byerly   Thomasville, NCDNF 149374  663 TEAM SPINZ
DNFJohn Riedel   Plain City, OHDNF 60626  613 INDEPENDEN

Men - EX - Master - 40-44

 Place NameCity, StateTime USAC #BibTeam
1Benjamin Koerber   Asheville, NC2:15:05. 97471  701 CANE CREEK
2Randy Iddings   Enumclaw, WA2:17:14. 94612  614 RAD RACING
3Bruce Saxton   West Suffield, CT2:21:12. 31403  532 CUTTING ED
4DAVID ANDERSON   Reno, NV2:22:54. 186148  576 K2 BIKES
5Marco Hellman   San Francisco, CA2:25:37. 123885  488 FROG & PEA
6RON HUEBNER   2:29:16.  748 POTOMAC VE
7Steve Dressen   Steamboat Springs, CO2:29:36. 132388  490 
8DAVID HARADEM   2:29:51.  528 
9LARRY CAMP   2:31:45.  411 VICIOUS CY
10Patrick Riggin   Rosslyn, VA2:33:16. 29877  902 CITY BIKES
11James Wilbur   Glen Rock, NJ2:37:39. 38201  531 RVCC
12ALEXANDER STROUHAL   2:39:56.  660 TEAM BURN
13Mark Poore   Cookeville, TN3:03:35. 94493  539 COLUMBIA C
DNFJerry Hutchinson   Tucson, AZDNF 17267  913 MONGOOSE M
DNFSCOTT STEURER   DNF  611 ARCADIA BR
DNFJohn Keller   Ellicott City, MDDNF 156834  858 SUN&SKI SP
DNFHenderson (Henry) Mandrell   Blythewood, SCDNF 89475  406 CYCLE CENT
DNFE.J. SIGETY   DNF  846 SPEEDGOAT.

Men - EX - Master - 45-49

 Place NameCity, StateTime USAC #BibTeam
1Robert Anderson   Mill Valley, CA2:12:05. 1688  427 TEAM CROW
2Ian Davidson   Clemson, SC2:12:41. 94785  542 SOBE CANNO
3Arthur White   Hohokus, NJ2:18:52. 37936  756 RVCC
4SCOTT ROOT   2:21:46.  869 DIRTY HARR
5Jack Murbach   Hueytown, AL2:24:41. 25449  496 ELLSWORTH
6William Gentile   Lebanon, PA2:39:23. 13043  628 BERDWERK U
DNFBrian Rafferty   Mamaroneck, NYDNF 169430  707 
DNFRichard Watts   Charleston, WVDNF 172634  774 RIDGE RIDE

Women - Junior - JR - JuniorX

 Place NameCity, StateTime USAC #BibTeam
1Magen Long   Denver, CO1:31:55. 115830  654 SPECILAIZE
2Sabra Davison   Jericho, VT1:38:21. 173327  731 TEAM DEVO
3Liza Winne   Georgetown, ME1:40:51. 149938  761 BLISS RACI
4Caitlyn Tuel   Golden, CO1:41:05. 168652  619 K2
5Molly Hummel   Durango, CO1:43:42. 103205  419 GOJUS/ALLT
6Grace Koerber   Pisgah Forest, NC1:44:48. 125041  702 
7Thais da Silva   Glenmoore, PA1:46:41. 122125  724 DOGFISH
8Michele Gibson   Berkeley, CA1:50:12. 151470  436 TEAM NSO
9Kristina Henne   Park City, UT2:01:07. 163331  715 MERCY CYCL
DNFStephanie White   Bedford, NHDNF 181386  416 NHJCA
DNFChenoah Hendershot   Mears, MIDNF 174025  732 SOBE CANNO

Women - EX - Senior - 19-24

 Place NameCity, StateTime USAC #BibTeam
1Abigail Hippely   Santa Cruz, CA1:33:38. 184801  773 MAVERICK A
2Jennifer Hare   Westminster, CO2:01:44. 72949  867 DERBY CITY
3TIERRA VILLASENOR   2:05:26.  763 INTENSE/OA
4Sarah Loya   Burlington, VT2:13:12. 135845  898 THE SKIRAC
DNFLISA ROPKE   Canton, GADNF 172792  407 INDEPENDEN
DNFCaroline LaBarre   Tucson, AZDNF 167445  433 UNVERSITY

Women - EX - Senior - 25-29

 Place NameCity, StateTime USAC #BibTeam
1Katherine Sherwin   Heber City, UT1:38:28. 173633  435 TREK/RESOR
2Diana Gillam   Ellicott City, MD1:40:17. 127846  911 TM SNOW VA
3Annemarie Huisman   Incline Village, NV1:41:21. 154915  699 CYCLEPATHS
4BARBARA HOWE   1:43:37.  418 UPMC FUJI
5Jessica Runyon   Kings Beach, CA1:43:41. 112107  698 CYCLEPATHS
6STEPHANIE MOATS LEIBKE   Shoreview, MN1:43:58. 151374  547 DOGFISH/TR
7Allison Carter   Jesup, GA1:49:24. 171187  896 COLORADO A
8DARCY CORNELL   Sturbridge, MA1:49:27. 175568  434 TEAM BICYC
9Rachael Mirvish   Boulder, CO1:51:21. 128137  717 TREK ROCKY
10Erica Connelly   Olympic Valley, CA1:52:22. 190169  673 
11Mayumi Swetland   Sparks, NV1:58:53. 180253  904 BICYLCES J
12Meghan Ryan   Silver Spring, MD1:59:54. 102341  34 CITY BIKES
13KAREN BROOKS   2:02:59.  645 
DNFMelissa Stelter   Lexington, KYDNF 148291  413 PEDAL POWE
DNFSPRING CLEGG   DNF  720 BROADWAY B
DNFMelodie Metzger   Berkeley, CADNF 177985  605 MISSING LI
DNFDeanne Lenehan   Westminster, MDDNF 170229  599 AVALON RAC
DNFJENNIFER ANDERSON   Phoenix, AZDNF 156145  526 AZ-FATTIRE

Women - EX - Master - 30-34

 Place NameCity, StateTime USAC #BibTeam
1Alisha Engel   San Luis Obispo, CA1:38:39. 10800  675 CENTRAL CO
2Nicole Habay   Flagstaff, AZ1:40:25. 168282  497 ARIZONA BI
3Tricia Stevenson   Asheville, NC1:41:01. 179910  864 THE CLEAN
4Susan Musante   Linden, VA1:42:44. 137510  606 THE BIKE L
5Lauren Costantini   Boulder, CO1:43:10. 146301  853 SYCIP
6Theresa Richardson   Davidsonville, MD1:44:59. 170227  623 BIKE DOCTO
7Nichole Wangsgard   Cedar City, UT1:47:44. 100972  438 BICYCLE CE
8TRUDI FRANZEL   1:50:29.  553 TITUS CYCL
9Cheryl Olson   Delton, MI1:50:36. 140154  493 INDEPENDAN
10KAREN HANBY   1:50:37.  916 
11Tammy Hottinger   Dover, AR1:51:10. 145314  604 MERCY CYCL
12LAURIE JOHNSTON   1:57:19.  850 GRASSHOPPE
13LINELL WRIGHT   Ringgold, GA1:58:07. 153532  868 TEAM PEGGY
14Mary Lynn Wikar   Vernon, CT2:01:26. 150092  815 3M DUCT TA
15MICHELE KORNHEISL   2:01:47.  917 
16Brooke Wilson   Morris Plains, NJ2:07:15. 161138  537 
17Heather Convey   Chicago, IL2:08:57. 188228  648 XXX RACING
18Paula Stewart   Reesville, OH2:15:01. 190225  807 WILMINGTON
DNFMichele Niles-Benedetti   Bluffton, SCDNF 152683  862 
DNFSonya Swartzentruber   Park City, UTDNF 132455  422 
DNFSARAH FLETCHER   DNF  908 OUTDOOR EX

Women - EX - Master - 35-39

 Place NameCity, StateTime USAC #BibTeam
1Sami Fournier   Bend, OR1:44:04. 152592  426 SNOW VALLE
2MARY MISIASZEK   1:44:34.  905 
3CHERYL BATTISTA   Asheville, NC1:57:40. 85836  487 
4Kim Gilchrist   Phoenix, AZ2:05:07. 127728  716 KHS BICYCL
DNFTheresa Seeberg   Salt Lake City, UTDNF 183006  1127 BROOKLYNMA
DNFCynthia Koerber   Asheville, NCDNF 79652  703 CANE CREEK

Report missing or incorrect license numbers

Volkswagen
SpyUSACDFSierra NevadaBonk BreakerShimano
UCI USA Cycling is the official governing body for all disciplines of competitive cycling in the United States. The 501c3, membership-based organization aims both to achieve sustained success in international cycling competition and to grow competitive cycling in America while delivering an exceptional customer experience.
View Children's Online Privacy Protection Policy
US Olympic Committee